contact:dominique.lefevre@mio.osupytheas.fr, maurice.libes@osupytheas.fr, didier.mallarino@osupytheas.fr
Project:EMSO http://www.emso-fr.org/EMSO-France
Depth: 2436.0 m
Title:EMSO Ligure Ouest : Data MII capteur MICROCAT
DateTime_Computer,Latitude,Longitude,Temperature,Conductivity,Pressure,DateTime_Instrument
DateTime_Computer,Latitude,Longitude,degC,S m-1,dbar,DateTime_Instrument
2019-11-04T00:00:58Z,42.805,6.029,13.2956,4.59959,2469.947,2019-11-04T02:01:25Z
2019-11-04T00:04:02Z,42.805,6.029,13.2958,4.59958,2469.947,2019-11-04T02:04:29Z
2019-11-04T00:07:05Z,42.805,6.029,13.2958,4.59959,2469.933,2019-11-04T02:07:32Z
2019-11-04T00:10:08Z,42.805,6.029,13.2957,4.59957,2469.96,2019-11-04T02:10:35Z
2019-11-04T00:13:11Z,42.805,6.029,13.2958,4.59956,2469.947,2019-11-04T02:13:38Z
2019-11-04T00:16:15Z,42.805,6.029,13.2958,4.59961,2469.947,2019-11-04T02:16:42Z
2019-11-04T00:19:18Z,42.805,6.029,13.2958,4.59957,2469.947,2019-11-04T02:19:45Z
2019-11-04T00:22:21Z,42.805,6.029,13.2958,4.59958,2469.97,2019-11-04T02:22:48Z
2019-11-04T00:25:24Z,42.805,6.029,13.2958,4.59965,2469.984,2019-11-04T02:25:51Z
2019-11-04T00:28:27Z,42.805,6.029,13.2958,4.59958,2469.923,2019-11-04T02:28:54Z
2019-11-04T00:31:31Z,42.805,6.029,13.2958,4.59957,2469.984,2019-11-04T02:31:58Z
2019-11-04T00:34:34Z,42.805,6.029,13.2959,4.59961,2469.937,2019-11-04T02:35:01Z
2019-11-04T00:37:37Z,42.805,6.029,13.2960,4.59962,2469.96,2019-11-04T02:38:04Z
2019-11-04T00:40:40Z,42.805,6.029,13.2956,4.59962,2469.923,2019-11-04T02:41:07Z
2019-11-04T00:43:44Z,42.805,6.029,13.2963,4.59957,2469.923,2019-11-04T02:44:11Z
2019-11-04T00:46:47Z,42.805,6.029,13.2959,4.59958,2469.947,2019-11-04T02:47:14Z
2019-11-04T00:49:50Z,42.805,6.029,13.2957,4.59958,2469.96,2019-11-04T02:50:17Z
2019-11-04T00:52:53Z,42.805,6.029,13.2960,4.59958,2469.923,2019-11-04T02:53:20Z
2019-11-04T00:55:57Z,42.805,6.029,13.2962,4.59964,2469.923,2019-11-04T02:56:24Z
2019-11-04T00:59:00Z,42.805,6.029,13.2961,4.59961,2469.97,2019-11-04T02:59:27Z
2019-11-04T01:02:03Z,42.805,6.029,13.2964,4.59959,2469.909,2019-11-04T03:02:30Z
2019-11-04T01:05:07Z,42.805,6.029,13.2961,4.59961,2469.923,2019-11-04T03:05:33Z
2019-11-04T01:08:10Z,42.805,6.029,13.2958,4.59959,2469.947,2019-11-04T03:08:37Z
2019-11-04T01:11:13Z,42.805,6.029,13.2957,4.59958,2469.937,2019-11-04T03:11:40Z
2019-11-04T01:14:16Z,42.805,6.029,13.2958,4.59958,2469.923,2019-11-04T03:14:43Z
2019-11-04T01:17:20Z,42.805,6.029,13.2958,4.59958,2469.937,2019-11-04T03:17:46Z
2019-11-04T01:20:23Z,42.805,6.029,13.2955,4.59957,2469.923,2019-11-04T03:20:50Z
2019-11-04T01:23:26Z,42.805,6.029,13.2960,4.59957,2469.947,2019-11-04T03:23:53Z
2019-11-04T01:26:29Z,42.805,6.029,13.2958,4.59958,2469.923,2019-11-04T03:26:56Z
2019-11-04T01:29:33Z,42.805,6.029,13.2958,4.59958,2469.937,2019-11-04T03:29:59Z
2019-11-04T01:32:36Z,42.805,6.029,13.2957,4.59964,2469.914,2019-11-04T03:33:03Z
2019-11-04T01:35:39Z,42.805,6.029,13.2957,4.59961,2469.9,2019-11-04T03:36:06Z
2019-11-04T01:38:42Z,42.805,6.029,13.2956,4.59963,2469.9,2019-11-04T03:39:09Z
2019-11-04T01:41:45Z,42.805,6.029,13.2961,4.59962,2469.914,2019-11-04T03:42:12Z
2019-11-04T01:44:48Z,42.805,6.029,13.2958,4.59959,2469.923,2019-11-04T03:45:15Z
2019-11-04T01:47:52Z,42.805,6.029,13.2957,4.59962,2469.923,2019-11-04T03:48:19Z
2019-11-04T01:50:55Z,42.805,6.029,13.2959,4.59966,2469.923,2019-11-04T03:51:22Z
2019-11-04T01:53:58Z,42.805,6.029,13.2960,4.59964,2469.923,2019-11-04T03:54:25Z
2019-11-04T01:57:01Z,42.805,6.029,13.2957,4.59961,2469.9,2019-11-04T03:57:28Z
2019-11-04T02:00:04Z,42.805,6.029,13.2957,4.59962,2469.937,2019-11-04T04:00:31Z
2019-11-04T02:03:08Z,42.805,6.029,13.2954,4.59961,2469.9,2019-11-04T04:03:35Z
2019-11-04T02:06:11Z,42.805,6.029,13.2963,4.59961,2469.923,2019-11-04T04:06:38Z
2019-11-04T02:09:14Z,42.805,6.029,13.2957,4.59964,2469.9,2019-11-04T04:09:41Z
2019-11-04T02:12:17Z,42.805,6.029,13.2958,4.59961,2469.923,2019-11-04T04:12:44Z
2019-11-04T02:15:21Z,42.805,6.029,13.2960,4.59968,2469.9,2019-11-04T04:15:47Z
2019-11-04T02:18:24Z,42.805,6.029,13.2958,4.59976,2469.947,2019-11-04T04:18:51Z
2019-11-04T02:21:27Z,42.805,6.029,13.3006,4.59988,2469.914,2019-11-04T04:21:54Z
2019-11-04T02:24:30Z,42.805,6.029,13.2964,4.59967,2469.937,2019-11-04T04:24:57Z
2019-11-04T02:27:34Z,42.805,6.029,13.2958,4.59970,2469.914,2019-11-04T04:28:00Z
2019-11-04T02:30:37Z,42.805,6.029,13.2957,4.59968,2469.9,2019-11-04T04:31:04Z
2019-11-04T02:33:40Z,42.805,6.029,13.2953,4.59969,2469.937,2019-11-04T04:34:07Z
2019-11-04T02:36:43Z,42.805,6.029,13.2957,4.59960,2469.914,2019-11-04T04:37:10Z
2019-11-04T02:39:47Z,42.805,6.029,13.2960,4.59968,2469.923,2019-11-04T04:40:14Z
2019-11-04T02:42:50Z,42.805,6.029,13.2957,4.59966,2469.914,2019-11-04T04:43:17Z
2019-11-04T02:45:53Z,42.805,6.029,13.2961,4.59971,2469.89,2019-11-04T04:46:20Z
2019-11-04T02:48:56Z,42.805,6.029,13.2958,4.59958,2469.914,2019-11-04T04:49:23Z
2019-11-04T02:51:59Z,42.805,6.029,13.2958,4.59960,2469.914,2019-11-04T04:52:26Z
2019-11-04T02:55:03Z,42.805,6.029,13.2959,4.59966,2469.914,2019-11-04T04:55:30Z
2019-11-04T02:58:06Z,42.805,6.029,13.2981,4.59970,2469.914,2019-11-04T04:58:33Z
2019-11-04T03:01:09Z,42.805,6.029,13.2971,4.59969,2469.914,2019-11-04T05:01:36Z
2019-11-04T03:04:12Z,42.805,6.029,13.2999,4.59999,2469.923,2019-11-04T05:04:39Z
2019-11-04T03:07:16Z,42.805,6.029,13.2978,4.59988,2469.914,2019-11-04T05:07:43Z
2019-11-04T03:10:19Z,42.805,6.029,13.3001,4.60002,2469.853,2019-11-04T05:10:46Z
2019-11-04T03:13:22Z,42.805,6.029,13.2991,4.59999,2469.923,2019-11-04T05:13:49Z
2019-11-04T03:16:25Z,42.805,6.029,13.2998,4.59974,2469.9,2019-11-04T05:16:52Z
2019-11-04T03:19:28Z,42.805,6.029,13.3013,4.59979,2469.89,2019-11-04T05:19:55Z
2019-11-04T03:22:32Z,42.805,6.029,13.2972,4.59988,2469.876,2019-11-04T05:22:59Z
2019-11-04T03:25:35Z,42.805,6.029,13.2989,4.59987,2469.89,2019-11-04T05:26:02Z
2019-11-04T03:28:38Z,42.805,6.029,13.2996,4.59982,2469.89,2019-11-04T05:29:05Z
2019-11-04T03:31:41Z,42.805,6.029,13.2997,4.59978,2469.9,2019-11-04T05:32:08Z
2019-11-04T03:34:44Z,42.805,6.029,13.2995,4.60004,2469.89,2019-11-04T05:35:11Z
2019-11-04T03:37:48Z,42.805,6.029,13.2990,4.60026,2469.876,2019-11-04T05:38:15Z
2019-11-04T03:40:51Z,42.805,6.029,13.2990,4.60014,2469.914,2019-11-04T05:41:18Z
2019-11-04T03:43:54Z,42.805,6.029,13.2976,4.60032,2469.876,2019-11-04T05:44:21Z
2019-11-04T03:46:57Z,42.805,6.029,13.2981,4.60036,2469.876,2019-11-04T05:47:24Z
2019-11-04T03:50:01Z,42.805,6.029,13.2995,4.60001,2469.89,2019-11-04T05:50:27Z
2019-11-04T03:53:04Z,42.805,6.029,13.2992,4.60039,2469.867,2019-11-04T05:53:31Z
2019-11-04T03:56:07Z,42.805,6.029,13.2982,4.59995,2469.89,2019-11-04T05:56:34Z
2019-11-04T03:59:10Z,42.805,6.029,13.2978,4.60062,2469.876,2019-11-04T05:59:37Z
2019-11-04T04:02:14Z,42.805,6.029,13.2995,4.60072,2469.867,2019-11-04T06:02:41Z
2019-11-04T04:05:17Z,42.805,6.029,13.2971,4.60055,2469.89,2019-11-04T06:05:44Z
2019-11-04T04:08:20Z,42.805,6.029,13.2986,4.60067,2469.89,2019-11-04T06:08:47Z
2019-11-04T04:11:23Z,42.805,6.029,13.2990,4.59994,2469.89,2019-11-04T06:11:50Z
2019-11-04T04:14:27Z,42.805,6.029,13.2976,4.60033,2469.867,2019-11-04T06:14:54Z
2019-11-04T04:17:30Z,42.805,6.029,13.2993,4.59986,2469.914,2019-11-04T06:17:57Z
2019-11-04T04:20:33Z,42.805,6.029,13.2983,4.59995,2469.9,2019-11-04T06:21:00Z
2019-11-04T04:23:36Z,42.805,6.029,13.2978,4.60063,2469.89,2019-11-04T06:24:03Z
2019-11-04T04:26:40Z,42.805,6.029,13.2982,4.59987,2469.914,2019-11-04T06:27:06Z
2019-11-04T04:29:43Z,42.805,6.029,13.2983,4.59986,2469.867,2019-11-04T06:30:10Z
2019-11-04T04:32:46Z,42.805,6.029,13.2982,4.59998,2469.89,2019-11-04T06:33:13Z
2019-11-04T04:35:49Z,42.805,6.029,13.2991,4.60003,2469.9,2019-11-04T06:36:16Z
2019-11-04T04:38:52Z,42.805,6.029,13.2996,4.60029,2469.89,2019-11-04T06:39:19Z
2019-11-04T04:41:56Z,42.805,6.029,13.2993,4.60010,2469.89,2019-11-04T06:42:23Z
2019-11-04T04:44:59Z,42.805,6.029,13.2994,4.60072,2469.853,2019-11-04T06:45:26Z
2019-11-04T04:48:02Z,42.805,6.029,13.2979,4.60070,2469.876,2019-11-04T06:48:29Z
2019-11-04T04:51:05Z,42.805,6.029,13.3014,4.59999,2469.876,2019-11-04T06:51:32Z
2019-11-04T04:54:09Z,42.805,6.029,13.2998,4.60031,2469.867,2019-11-04T06:54:35Z
2019-11-04T04:57:12Z,42.805,6.029,13.2995,4.60063,2469.89,2019-11-04T06:57:39Z
2019-11-04T05:00:15Z,42.805,6.029,13.3009,4.60021,2469.89,2019-11-04T07:00:42Z
2019-11-04T05:03:18Z,42.805,6.029,13.2981,4.60025,2469.89,2019-11-04T07:03:45Z
2019-11-04T05:06:21Z,42.805,6.029,13.2984,4.60061,2469.853,2019-11-04T07:06:48Z
2019-11-04T05:09:25Z,42.805,6.029,13.2987,4.60021,2469.923,2019-11-04T07:09:52Z
2019-11-04T05:12:28Z,42.805,6.029,13.2988,4.60036,2469.876,2019-11-04T07:12:55Z
2019-11-04T05:15:31Z,42.805,6.029,13.2997,4.60063,2469.839,2019-11-04T07:15:58Z
2019-11-04T05:18:34Z,42.805,6.029,13.3019,4.60040,2469.89,2019-11-04T07:19:01Z
2019-11-04T05:21:37Z,42.805,6.029,13.3016,4.60033,2469.89,2019-11-04T07:22:04Z
2019-11-04T05:24:41Z,42.805,6.029,13.3042,4.60001,2469.867,2019-11-04T07:25:07Z
2019-11-04T05:27:44Z,42.805,6.029,13.3053,4.60021,2469.89,2019-11-04T07:28:11Z
2019-11-04T05:30:47Z,42.805,6.029,13.3003,4.60066,2469.867,2019-11-04T07:31:14Z
2019-11-04T05:33:50Z,42.805,6.029,13.3026,4.60015,2469.853,2019-11-04T07:34:17Z
2019-11-04T05:36:54Z,42.805,6.029,13.3013,4.59984,2469.853,2019-11-04T07:37:21Z
2019-11-04T05:39:57Z,42.805,6.029,13.3044,4.60029,2469.867,2019-11-04T07:40:24Z
2019-11-04T05:43:00Z,42.805,6.029,13.3000,4.60044,2469.914,2019-11-04T07:43:27Z
2019-11-04T05:46:03Z,42.805,6.029,13.3044,4.60016,2469.853,2019-11-04T07:46:30Z
2019-11-04T05:49:07Z,42.805,6.029,13.3036,4.60041,2469.867,2019-11-04T07:49:33Z
2019-11-04T05:52:10Z,42.805,6.029,13.3050,4.60037,2469.867,2019-11-04T07:52:37Z
2019-11-04T05:55:13Z,42.805,6.029,13.3052,4.60041,2469.867,2019-11-04T07:55:40Z
2019-11-04T05:58:16Z,42.805,6.029,13.3041,4.59986,2469.853,2019-11-04T07:58:43Z
2019-11-04T06:01:20Z,42.805,6.029,13.3020,4.59998,2469.876,2019-11-04T08:01:46Z
2019-11-04T06:04:23Z,42.805,6.029,13.2984,4.59994,2469.89,2019-11-04T08:04:50Z
2019-11-04T06:07:26Z,42.805,6.029,13.2997,4.60012,2469.876,2019-11-04T08:07:53Z
2019-11-04T06:10:29Z,42.805,6.029,13.2986,4.60013,2469.89,2019-11-04T08:10:56Z
2019-11-04T06:13:32Z,42.805,6.029,13.2983,4.59994,2469.867,2019-11-04T08:13:59Z
2019-11-04T06:16:35Z,42.805,6.029,13.3000,4.60003,2469.89,2019-11-04T08:17:02Z
2019-11-04T06:19:39Z,42.805,6.029,13.3014,4.59987,2469.914,2019-11-04T08:20:06Z
2019-11-04T06:22:42Z,42.805,6.029,13.3008,4.60028,2469.89,2019-11-04T08:23:09Z
2019-11-04T06:25:45Z,42.805,6.029,13.3011,4.60007,2469.876,2019-11-04T08:26:12Z
2019-11-04T06:28:48Z,42.805,6.029,13.3009,4.60005,2469.83,2019-11-04T08:29:15Z
2019-11-04T06:31:52Z,42.805,6.029,13.3012,4.60006,2469.853,2019-11-04T08:32:18Z
2019-11-04T06:34:55Z,42.805,6.029,13.3011,4.59996,2469.89,2019-11-04T08:35:22Z
2019-11-04T06:37:58Z,42.805,6.029,13.3024,4.60005,2469.853,2019-11-04T08:38:25Z
2019-11-04T06:41:01Z,42.805,6.029,13.3048,4.60003,2469.867,2019-11-04T08:41:28Z
2019-11-04T06:44:04Z,42.805,6.029,13.3026,4.59992,2469.867,2019-11-04T08:44:31Z
2019-11-04T06:47:08Z,42.805,6.029,13.3025,4.60009,2469.876,2019-11-04T08:47:35Z
2019-11-04T06:50:11Z,42.805,6.029,13.3008,4.60015,2469.89,2019-11-04T08:50:38Z
2019-11-04T06:53:14Z,42.805,6.029,13.3019,4.60001,2469.876,2019-11-04T08:53:41Z
2019-11-04T06:56:17Z,42.805,6.029,13.3036,4.60004,2469.876,2019-11-04T08:56:44Z
2019-11-04T06:59:21Z,42.805,6.029,13.3034,4.60009,2469.853,2019-11-04T08:59:48Z
2019-11-04T07:02:24Z,42.805,6.029,13.3039,4.60007,2469.876,2019-11-04T09:02:51Z
2019-11-04T07:05:27Z,42.805,6.029,13.3041,4.59996,2469.89,2019-11-04T09:05:54Z
2019-11-04T07:08:30Z,42.805,6.029,13.3038,4.60006,2469.89,2019-11-04T09:08:57Z
2019-11-04T07:11:33Z,42.805,6.029,13.3051,4.60020,2469.844,2019-11-04T09:12:00Z
2019-11-04T07:14:37Z,42.805,6.029,13.3029,4.60020,2469.876,2019-11-04T09:15:04Z
2019-11-04T07:17:40Z,42.805,6.029,13.2958,4.60045,2469.89,2019-11-04T09:18:07Z
2019-11-04T07:20:43Z,42.805,6.029,13.2962,4.60003,2469.844,2019-11-04T09:21:10Z
2019-11-04T07:23:46Z,42.805,6.029,13.2958,4.59991,2469.89,2019-11-04T09:24:13Z
2019-11-04T07:26:49Z,42.805,6.029,13.2962,4.60004,2469.89,2019-11-04T09:27:16Z
2019-11-04T07:29:53Z,42.805,6.029,13.2957,4.60003,2469.876,2019-11-04T09:30:20Z
2019-11-04T07:32:56Z,42.805,6.029,13.2957,4.60000,2469.89,2019-11-04T09:33:23Z
2019-11-04T07:35:59Z,42.805,6.029,13.2957,4.59996,2469.89,2019-11-04T09:36:26Z
2019-11-04T07:39:02Z,42.805,6.029,13.2958,4.59985,2469.853,2019-11-04T09:39:29Z
2019-11-04T07:42:06Z,42.805,6.029,13.2957,4.59992,2469.876,2019-11-04T09:42:32Z
2019-11-04T07:45:09Z,42.805,6.029,13.2955,4.59980,2469.876,2019-11-04T09:45:36Z
2019-11-04T07:48:12Z,42.805,6.029,13.2957,4.59999,2469.914,2019-11-04T09:48:39Z
2019-11-04T07:51:15Z,42.805,6.029,13.2958,4.59984,2469.89,2019-11-04T09:51:42Z
2019-11-04T07:54:18Z,42.805,6.029,13.2957,4.59988,2469.876,2019-11-04T09:54:45Z
2019-11-04T07:57:22Z,42.805,6.029,13.2957,4.59973,2469.914,2019-11-04T09:57:48Z
2019-11-04T08:00:25Z,42.805,6.029,13.2958,4.59968,2469.876,2019-11-04T10:00:52Z
2019-11-04T08:03:28Z,42.805,6.029,13.2956,4.59968,2469.876,2019-11-04T10:03:55Z
2019-11-04T08:06:31Z,42.805,6.029,13.2957,4.59966,2469.9,2019-11-04T10:06:58Z
2019-11-04T08:09:34Z,42.805,6.029,13.2960,4.59966,2469.876,2019-11-04T10:10:01Z
2019-11-04T08:12:38Z,42.805,6.029,13.2962,4.59964,2469.914,2019-11-04T10:13:05Z
2019-11-04T08:15:41Z,42.805,6.029,13.2957,4.59962,2469.863,2019-11-04T10:16:08Z
2019-11-04T08:18:44Z,42.805,6.029,13.2957,4.59962,2469.914,2019-11-04T10:19:11Z
2019-11-04T08:21:47Z,42.805,6.029,13.2953,4.59965,2469.9,2019-11-04T10:22:14Z
2019-11-04T08:24:51Z,42.805,6.029,13.2953,4.59964,2469.914,2019-11-04T10:25:18Z
2019-11-04T08:27:54Z,42.805,6.029,13.2954,4.59961,2469.89,2019-11-04T10:28:21Z
2019-11-04T08:30:57Z,42.805,6.029,13.2956,4.59960,2469.923,2019-11-04T10:31:24Z
2019-11-04T08:34:00Z,42.805,6.029,13.2957,4.59961,2469.876,2019-11-04T10:34:27Z
2019-11-04T08:37:03Z,42.805,6.029,13.2960,4.59963,2469.876,2019-11-04T10:37:30Z
2019-11-04T08:40:07Z,42.805,6.029,13.2958,4.59967,2469.937,2019-11-04T10:40:33Z
2019-11-04T08:43:10Z,42.805,6.029,13.2957,4.59963,2469.9,2019-11-04T10:43:37Z
2019-11-04T08:46:13Z,42.805,6.029,13.2952,4.59962,2469.923,2019-11-04T10:46:40Z
2019-11-04T08:49:16Z,42.805,6.029,13.2956,4.59961,2469.9,2019-11-04T10:49:43Z
2019-11-04T08:52:19Z,42.805,6.029,13.2961,4.59962,2469.9,2019-11-04T10:52:46Z
2019-11-04T08:55:23Z,42.805,6.029,13.2957,4.59961,2469.89,2019-11-04T10:55:49Z
2019-11-04T08:58:26Z,42.805,6.029,13.2957,4.59960,2469.9,2019-11-04T10:58:53Z
2019-11-04T09:01:29Z,42.805,6.029,13.2959,4.59961,2469.89,2019-11-04T11:01:56Z
2019-11-04T09:04:32Z,42.805,6.029,13.2960,4.59964,2469.853,2019-11-04T11:04:59Z
2019-11-04T09:07:35Z,42.805,6.029,13.2959,4.59960,2469.914,2019-11-04T11:08:02Z
2019-11-04T09:10:39Z,42.805,6.029,13.2957,4.59962,2469.923,2019-11-04T11:11:06Z
2019-11-04T09:13:42Z,42.805,6.029,13.2957,4.59961,2469.9,2019-11-04T11:14:09Z
2019-11-04T09:16:45Z,42.805,6.029,13.2956,4.59962,2469.923,2019-11-04T11:17:12Z
2019-11-04T09:19:48Z,42.805,6.029,13.2954,4.59961,2469.923,2019-11-04T11:20:15Z
2019-11-04T09:22:51Z,42.805,6.029,13.2957,4.59961,2469.914,2019-11-04T11:23:18Z
2019-11-04T09:25:55Z,42.805,6.029,13.2957,4.59961,2469.97,2019-11-04T11:26:21Z
2019-11-04T09:28:58Z,42.805,6.029,13.2962,4.59964,2469.96,2019-11-04T11:29:25Z
2019-11-04T09:32:01Z,42.805,6.029,13.2961,4.59962,2469.914,2019-11-04T11:32:28Z
2019-11-04T09:35:04Z,42.805,6.029,13.2954,4.59963,2469.984,2019-11-04T11:35:31Z
2019-11-04T09:38:08Z,42.805,6.029,13.2962,4.59960,2469.937,2019-11-04T11:38:35Z
2019-11-04T09:41:11Z,42.805,6.029,13.2959,4.59961,2469.923,2019-11-04T11:41:38Z
2019-11-04T09:44:14Z,42.805,6.029,13.2956,4.59963,2469.923,2019-11-04T11:44:41Z
2019-11-04T09:47:17Z,42.805,6.029,13.2956,4.59958,2469.96,2019-11-04T11:47:44Z
2019-11-04T09:50:20Z,42.805,6.029,13.2958,4.59961,2469.984,2019-11-04T11:50:47Z
2019-11-04T09:53:24Z,42.805,6.029,13.2957,4.59961,2469.97,2019-11-04T11:53:50Z
2019-11-04T09:56:27Z,42.805,6.029,13.2957,4.59963,2469.97,2019-11-04T11:56:54Z
2019-11-04T09:59:30Z,42.805,6.029,13.2957,4.59960,2469.984,2019-11-04T11:59:57Z
2019-11-04T10:02:33Z,42.805,6.029,13.2959,4.59960,2470.007,2019-11-04T12:03:00Z
2019-11-04T10:05:36Z,42.805,6.029,13.2961,4.59961,2469.96,2019-11-04T12:06:03Z
2019-11-04T10:08:39Z,42.805,6.029,13.2957,4.59962,2469.97,2019-11-04T12:09:06Z
2019-11-04T10:11:43Z,42.805,6.029,13.2963,4.59958,2469.96,2019-11-04T12:12:10Z
2019-11-04T10:14:46Z,42.805,6.029,13.2964,4.59959,2469.96,2019-11-04T12:15:13Z
2019-11-04T10:17:49Z,42.805,6.029,13.2959,4.59961,2469.96,2019-11-04T12:18:16Z
2019-11-04T10:20:52Z,42.805,6.029,13.2961,4.59961,2469.947,2019-11-04T12:21:19Z
2019-11-04T10:23:55Z,42.805,6.029,13.2957,4.59961,2469.96,2019-11-04T12:24:22Z
2019-11-04T10:26:59Z,42.805,6.029,13.2956,4.59960,2469.97,2019-11-04T12:27:26Z
2019-11-04T10:30:02Z,42.805,6.029,13.2953,4.59961,2469.984,2019-11-04T12:30:29Z
2019-11-04T10:33:05Z,42.805,6.029,13.2958,4.59961,2469.947,2019-11-04T12:33:32Z
2019-11-04T10:36:08Z,42.805,6.029,13.2958,4.59961,2469.97,2019-11-04T12:36:35Z
2019-11-04T10:39:12Z,42.805,6.029,13.2960,4.59961,2469.97,2019-11-04T12:39:38Z
2019-11-04T10:42:15Z,42.805,6.029,13.2955,4.59960,2469.97,2019-11-04T12:42:42Z
2019-11-04T10:45:18Z,42.805,6.029,13.2957,4.59961,2469.97,2019-11-04T12:45:45Z
2019-11-04T10:48:21Z,42.805,6.029,13.2958,4.59961,2469.947,2019-11-04T12:48:48Z
2019-11-04T10:51:24Z,42.805,6.029,13.2957,4.59962,2469.984,2019-11-04T12:51:51Z
2019-11-04T10:54:28Z,42.805,6.029,13.2959,4.59960,2469.97,2019-11-04T12:54:55Z
2019-11-04T10:57:31Z,42.805,6.029,13.2957,4.59961,2469.947,2019-11-04T12:57:58Z
2019-11-04T11:00:34Z,42.805,6.029,13.2960,4.59961,2470.007,2019-11-04T13:01:01Z
2019-11-04T11:03:37Z,42.805,6.029,13.2959,4.59961,2469.97,2019-11-04T13:04:04Z
2019-11-04T11:06:40Z,42.805,6.029,13.2959,4.59961,2469.97,2019-11-04T13:07:07Z
2019-11-04T11:09:44Z,42.805,6.029,13.2960,4.59962,2469.947,2019-11-04T13:10:11Z
2019-11-04T11:12:47Z,42.805,6.029,13.2958,4.59964,2469.97,2019-11-04T13:13:14Z
2019-11-04T11:15:50Z,42.805,6.029,13.2956,4.59959,2469.97,2019-11-04T13:16:17Z
2019-11-04T11:18:53Z,42.805,6.029,13.2961,4.59961,2469.984,2019-11-04T13:19:20Z
2019-11-04T11:21:56Z,42.805,6.029,13.2961,4.59965,2470.007,2019-11-04T13:22:23Z
2019-11-04T11:25:00Z,42.805,6.029,13.2961,4.59961,2469.984,2019-11-04T13:25:27Z
2019-11-04T11:28:03Z,42.805,6.029,13.2959,4.59960,2469.97,2019-11-04T13:28:30Z
2019-11-04T11:31:06Z,42.805,6.029,13.2961,4.59964,2469.984,2019-11-04T13:31:33Z
2019-11-04T11:34:09Z,42.805,6.029,13.2959,4.59962,2469.97,2019-11-04T13:34:36Z
2019-11-04T11:37:12Z,42.805,6.029,13.2958,4.59961,2470.007,2019-11-04T13:37:39Z
2019-11-04T11:40:16Z,42.805,6.029,13.2957,4.59963,2469.993,2019-11-04T13:40:43Z
2019-11-04T11:43:19Z,42.805,6.029,13.2959,4.59961,2469.96,2019-11-04T13:43:46Z
2019-11-04T11:46:22Z,42.805,6.029,13.2963,4.59960,2469.984,2019-11-04T13:46:49Z
2019-11-04T11:49:25Z,42.805,6.029,13.2962,4.59960,2470.007,2019-11-04T13:49:52Z
2019-11-04T11:52:29Z,42.805,6.029,13.2959,4.59962,2469.97,2019-11-04T13:52:55Z
2019-11-04T11:55:32Z,42.805,6.029,13.2959,4.59962,2469.947,2019-11-04T13:55:59Z
2019-11-04T11:58:35Z,42.805,6.029,13.2955,4.59959,2469.993,2019-11-04T13:59:02Z
2019-11-04T12:01:38Z,42.805,6.029,13.2958,4.59961,2469.97,2019-11-04T14:02:05Z
2019-11-04T12:04:41Z,42.805,6.029,13.2960,4.59962,2469.97,2019-11-04T14:05:08Z
2019-11-04T12:07:44Z,42.805,6.029,13.2957,4.59958,2469.984,2019-11-04T14:08:11Z
2019-11-04T12:10:48Z,42.805,6.029,13.2958,4.59961,2469.97,2019-11-04T14:11:15Z
2019-11-04T12:13:51Z,42.805,6.029,13.2954,4.59959,2470.03,2019-11-04T14:14:18Z
2019-11-04T12:16:54Z,42.805,6.029,13.2959,4.59961,2470.003,2019-11-04T14:17:21Z
2019-11-04T12:19:57Z,42.805,6.029,13.2960,4.59961,2469.984,2019-11-04T14:20:24Z
2019-11-04T12:23:00Z,42.805,6.029,13.2958,4.59961,2469.984,2019-11-04T14:23:27Z
2019-11-04T12:26:04Z,42.805,6.029,13.2961,4.59960,2469.984,2019-11-04T14:26:30Z
2019-11-04T12:29:07Z,42.805,6.029,13.2956,4.59958,2470.03,2019-11-04T14:29:34Z
2019-11-04T12:32:10Z,42.805,6.029,13.2962,4.59958,2470.007,2019-11-04T14:32:37Z
2019-11-04T12:35:13Z,42.805,6.029,13.2957,4.59956,2469.97,2019-11-04T14:35:40Z
2019-11-04T12:38:17Z,42.805,6.029,13.2957,4.59957,2470.03,2019-11-04T14:38:43Z
2019-11-04T12:41:20Z,42.805,6.029,13.2960,4.59958,2470.017,2019-11-04T14:41:47Z
2019-11-04T12:44:23Z,42.805,6.029,13.2957,4.59958,2469.97,2019-11-04T14:44:50Z
2019-11-04T12:47:26Z,42.805,6.029,13.2959,4.59958,2469.993,2019-11-04T14:47:53Z
2019-11-04T12:50:29Z,42.805,6.029,13.2960,4.59958,2470.017,2019-11-04T14:50:56Z
2019-11-04T12:53:33Z,42.805,6.029,13.2953,4.59956,2470.017,2019-11-04T14:53:59Z
2019-11-04T12:56:36Z,42.805,6.029,13.2953,4.59957,2470.007,2019-11-04T14:57:03Z
2019-11-04T12:59:39Z,42.805,6.029,13.2958,4.59957,2470.03,2019-11-04T15:00:06Z
2019-11-04T13:02:42Z,42.805,6.029,13.2959,4.59958,2469.97,2019-11-04T15:03:09Z
2019-11-04T13:05:45Z,42.805,6.029,13.2957,4.59958,2469.984,2019-11-04T15:06:12Z
2019-11-04T13:08:49Z,42.805,6.029,13.2959,4.59957,2470.03,2019-11-04T15:09:15Z
2019-11-04T13:11:52Z,42.805,6.029,13.2957,4.59958,2470.007,2019-11-04T15:12:19Z
2019-11-04T13:14:55Z,42.805,6.029,13.2957,4.59959,2470.007,2019-11-04T15:15:22Z
2019-11-04T13:17:58Z,42.805,6.029,13.2958,4.59959,2470.017,2019-11-04T15:18:25Z
2019-11-04T13:21:01Z,42.805,6.029,13.2957,4.59958,2469.984,2019-11-04T15:21:28Z
2019-11-04T13:24:05Z,42.805,6.029,13.2958,4.59957,2470.04,2019-11-04T15:24:32Z
2019-11-04T13:27:08Z,42.805,6.029,13.2959,4.59957,2469.993,2019-11-04T15:27:35Z
2019-11-04T13:30:11Z,42.805,6.029,13.2957,4.59958,2470.03,2019-11-04T15:30:38Z
2019-11-04T13:33:14Z,42.805,6.029,13.2961,4.59957,2469.97,2019-11-04T15:33:41Z
2019-11-04T13:36:17Z,42.805,6.029,13.2958,4.59958,2469.984,2019-11-04T15:36:44Z
2019-11-04T13:39:21Z,42.805,6.029,13.2958,4.59957,2469.993,2019-11-04T15:39:48Z
2019-11-04T13:42:24Z,42.805,6.029,13.2958,4.59957,2470.017,2019-11-04T15:42:51Z
2019-11-04T13:45:27Z,42.805,6.029,13.2958,4.59958,2470.017,2019-11-04T15:45:54Z
2019-11-04T13:48:30Z,42.805,6.029,13.2956,4.59958,2470.03,2019-11-04T15:48:57Z
2019-11-04T13:51:33Z,42.805,6.029,13.2958,4.59958,2470.017,2019-11-04T15:52:00Z
2019-11-04T13:54:37Z,42.805,6.029,13.2959,4.59958,2470.007,2019-11-04T15:55:04Z
2019-11-04T13:57:40Z,42.805,6.029,13.2957,4.59957,2470.03,2019-11-04T15:58:07Z
2019-11-04T14:00:43Z,42.805,6.029,13.2961,4.59956,2469.984,2019-11-04T16:01:10Z
2019-11-04T14:03:46Z,42.805,6.029,13.2967,4.59956,2470.017,2019-11-04T16:04:13Z
2019-11-04T14:06:50Z,42.805,6.029,13.2958,4.59958,2470.017,2019-11-04T16:07:16Z
2019-11-04T14:09:53Z,42.805,6.029,13.2960,4.59956,2469.993,2019-11-04T16:10:20Z
2019-11-04T14:12:56Z,42.805,6.029,13.2959,4.59957,2470.017,2019-11-04T16:13:23Z
2019-11-04T14:15:59Z,42.805,6.029,13.2957,4.59957,2469.993,2019-11-04T16:16:26Z
2019-11-04T14:19:02Z,42.805,6.029,13.2958,4.59956,2470.017,2019-11-04T16:19:29Z
2019-11-04T14:22:06Z,42.805,6.029,13.2959,4.59956,2469.97,2019-11-04T16:22:33Z
2019-11-04T14:25:09Z,42.805,6.029,13.2960,4.59962,2469.97,2019-11-04T16:25:36Z
2019-11-04T14:28:12Z,42.805,6.029,13.2962,4.59958,2470.007,2019-11-04T16:28:39Z
2019-11-04T14:31:15Z,42.805,6.029,13.2957,4.59956,2469.993,2019-11-04T16:31:42Z
2019-11-04T14:34:19Z,42.805,6.029,13.2959,4.59958,2469.984,2019-11-04T16:34:45Z
2019-11-04T14:37:22Z,42.805,6.029,13.2959,4.59956,2470.007,2019-11-04T16:37:49Z
2019-11-04T14:40:25Z,42.805,6.029,13.2959,4.59957,2470.007,2019-11-04T16:40:52Z
2019-11-04T14:43:28Z,42.805,6.029,13.2956,4.59956,2469.993,2019-11-04T16:43:55Z
2019-11-04T14:46:31Z,42.805,6.029,13.2961,4.59956,2469.993,2019-11-04T16:46:58Z
2019-11-04T14:49:35Z,42.805,6.029,13.2959,4.59957,2469.993,2019-11-04T16:50:02Z
2019-11-04T14:52:38Z,42.805,6.029,13.2958,4.59964,2470.017,2019-11-04T16:53:05Z
2019-11-04T14:55:41Z,42.805,6.029,13.2957,4.59960,2469.984,2019-11-04T16:56:08Z
2019-11-04T14:58:44Z,42.805,6.029,13.2958,4.59956,2469.993,2019-11-04T16:59:11Z
2019-11-04T15:01:48Z,42.805,6.029,13.2958,4.59956,2470.017,2019-11-04T17:02:14Z